Location: Cahas Mountain Overlook
(37.0833°N, 80.1000°W)
Time: 08:06:00
(UTC-04:00)

Tiros 1 - Pass Details

Date: 12 February 2026
Orbit: 618 x 650 km, 48.4° (Epoch: 14 March)

Event Time Altitude Azimuth Distance (km) Brightness Sun altitude
Rises 17:55:28 0° 297° (WNW) 2,885 11.3 -0.5°
Reaches altitude 10° 17:57:57 10° 287° (WNW) 1,978 10.7 -0.9°
Maximum altitude 18:01:58 31° 225° (SW) 1,077 9.2 -1.7°
Drops below altitude 10° 18:05:59 10° 162° (SSE) 1,981 9.6 -2.5°
Sets 18:08:29 0° 152° (SSE) 2,889 10.4 -3.0°
